• In Schweiz
  • Länderverzeichnis
  • Für 7 Tage
  • Wassertemperatur
  • Satellitenkarten
  • Wetterkarte
  • Widgets
  • user-avatar
    Anmelden

    Stündliche Wetter Seredyne

    Heute, 16 Juli, Montag

    Zeit Temperatur Niederschläge Wind Luftdruck Luftfeuchtigkeit
    00:00 +20°C° 0 mm 1 m/S 743 mmHg 84%
    01:00 +20°C° 0 mm 1 m/S 743 mmHg 85%
    02:00 +19°C° 0 mm 1 m/S 743 mmHg 87%
    03:00 +18°C° 0 mm 2 m/S 743 mmHg 87%
    04:00 +18°C° 0 mm 2 m/S 743 mmHg 88%
    05:00 +18°C° 0 mm 2 m/S 743 mmHg 89%
    06:00 +20°C° 0 mm 2 m/S 743 mmHg 83%
    07:00 +21°C° 0 mm 2 m/S 743 mmHg 78%
    08:00 +24°C° 0 mm 2 m/S 743 mmHg 72%
    09:00 +25°C° 0 mm 2 m/S 743 mmHg 67%
    10:00 +26°C° 0 mm 2 m/S 743 mmHg 61%
    11:00 +27°C° 0 mm 2 m/S 742 mmHg 56%
    12:00 +28°C° 0 mm 2 m/S 742 mmHg 54%
    13:00 +28°C° 0 mm 2 m/S 742 mmHg 52%
    14:00 +29°C° 0 mm 2 m/S 742 mmHg 50%
    15:00 +28°C° 0 mm 2 m/S 742 mmHg 52%
    16:00 +28°C° 0 mm 2 m/S 742 mmHg 55%
    17:00 +28°C° 0 mm 2 m/S 742 mmHg 57%
    18:00 +26°C° 0,1 mm 2 m/S 742 mmHg 62%
    19:00 +25°C° 0,1 mm 2 m/S 742 mmHg 68%
    20:00 +23°C° 0,1 mm 2 m/S 742 mmHg 73%
    21:00 +23°C° 0,2 mm 2 m/S 742 mmHg 76%
    22:00 +21°C° 0,2 mm 2 m/S 741 mmHg 79%
    23:00 +21°C° 0,2 mm 1 m/S 741 mmHg 82%

    Morgen, 17 Juli, Dienstag

    Zeit Temperatur Niederschläge Wind Luftdruck Luftfeuchtigkeit
    00:00 +20°C° 0,1 mm 2 m/S 741 mmHg 83%
    01:00 +19°C° 0,1 mm 2 m/S 741 mmHg 84%
    02:00 +19°C° 0,1 mm 2 m/S 741 mmHg 85%
    03:00 +19°C° 0 mm 2 m/S 741 mmHg 86%
    04:00 +19°C° 0 mm 2 m/S 741 mmHg 86%
    05:00 +19°C° 0 mm 2 m/S 741 mmHg 87%
    06:00 +20°C° 0 mm 2 m/S 741 mmHg 85%
    07:00 +20°C° 0 mm 2 m/S 741 mmHg 82%
    08:00 +21°C° 0 mm 2 m/S 741 mmHg 80%
    09:00 +23°C° 0,1 mm 2 m/S 740 mmHg 77%
    10:00 +24°C° 0,1 mm 2 m/S 740 mmHg 74%
    11:00 +25°C° 0,1 mm 2 m/S 740 mmHg 71%
    12:00 +25°C° 0,1 mm 3 m/S 740 mmHg 69%
    13:00 +26°C° 0,1 mm 3 m/S 740 mmHg 67%
    14:00 +26°C° 0,1 mm 4 m/S 740 mmHg 65%
    15:00 +26°C° 0,1 mm 3 m/S 740 mmHg 68%
    16:00 +25°C° 0,1 mm 3 m/S 740 mmHg 70%
    17:00 +25°C° 0,1 mm 3 m/S 739 mmHg 73%
    18:00 +24°C° 0,1 mm 3 m/S 739 mmHg 77%
    19:00 +23°C° 0,1 mm 2 m/S 739 mmHg 82%
    20:00 +21°C° 0,1 mm 2 m/S 740 mmHg 87%
    21:00 +20°C° 0 mm 2 m/S 739 mmHg 88%
    22:00 +20°C° 0 mm 2 m/S 739 mmHg 90%
    23:00 +19°C° 0 mm 2 m/S 739 mmHg 91%

    übermorgen, 18 Juli, Mittwoch

    Zeit Temperatur Niederschläge Wind Luftdruck Luftfeuchtigkeit
    00:00 +19°C° 0 mm 2 m/S 739 mmHg 92%
    01:00 +19°C° 0 mm 2 m/S 739 mmHg 93%
    02:00 +19°C° 0 mm 3 m/S 739 mmHg 93%
    03:00 +19°C° 0 mm 3 m/S 739 mmHg 93%
    04:00 +19°C° 0 mm 3 m/S 739 mmHg 94%
    05:00 +19°C° 0 mm 3 m/S 739 mmHg 94%
    06:00 +20°C° 0,1 mm 3 m/S 739 mmHg 89%
    07:00 +21°C° 0,1 mm 4 m/S 739 mmHg 85%
    08:00 +22°C° 0,1 mm 4 m/S 739 mmHg 81%
    09:00 +23°C° 0,1 mm 4 m/S 739 mmHg 78%
    10:00 +23°C° 0,1 mm 5 m/S 739 mmHg 75%
    11:00 +25°C° 0,1 mm 5 m/S 739 mmHg 72%
    12:00 +25°C° 0,5 mm 4 m/S 739 mmHg 72%
    13:00 +26°C° 0,5 mm 4 m/S 739 mmHg 71%
    14:00 +26°C° 0,5 mm 4 m/S 739 mmHg 70%
    15:00 +26°C° 0,5 mm 4 m/S 739 mmHg 72%
    16:00 +26°C° 0,5 mm 4 m/S 739 mmHg 74%
    17:00 +26°C° 0,5 mm 3 m/S 739 mmHg 75%
    18:00 +25°C° 0,2 mm 3 m/S 739 mmHg 79%
    19:00 +24°C° 0,2 mm 3 m/S 739 mmHg 83%
    20:00 +22°C° 0,2 mm 3 m/S 739 mmHg 87%
    21:00 +21°C° 0,6 mm 3 m/S 739 mmHg 88%
    22:00 +21°C° 0,6 mm 3 m/S 739 mmHg 90%
    23:00 +21°C° 0,6 mm 3 m/S 739 mmHg 91%

    19 Juli, Donnerstag

    Zeit Temperatur Niederschläge Wind Luftdruck Luftfeuchtigkeit
    00:00 +20°C° 0,2 mm 2 m/S 739 mmHg 92%
    01:00 +20°C° 0,2 mm 2 m/S 739 mmHg 93%
    02:00 +20°C° 0,2 mm 2 m/S 739 mmHg 94%
    03:00 +20°C° 0,2 mm 2 m/S 739 mmHg 94%
    04:00 +20°C° 0,2 mm 2 m/S 740 mmHg 94%
    05:00 +20°C° 0,2 mm 2 m/S 740 mmHg 93%
    06:00 +20°C° 0,1 mm 2 m/S 740 mmHg 90%
    07:00 +21°C° 0,1 mm 2 m/S 740 mmHg 86%
    08:00 +23°C° 0,1 mm 2 m/S 740 mmHg 83%
    09:00 +24°C° 0,2 mm 2 m/S 740 mmHg 79%
    10:00 +25°C° 0,2 mm 2 m/S 740 mmHg 75%
    11:00 +26°C° 0,2 mm 2 m/S 740 mmHg 71%
    12:00 +27°C° 0,2 mm 3 m/S 740 mmHg 67%
    13:00 +28°C° 0,2 mm 3 m/S 740 mmHg 63%
    14:00 +29°C° 0,2 mm 3 m/S 740 mmHg 59%
    15:00 +29°C° 0,7 mm 3 m/S 740 mmHg 62%
    16:00 +28°C° 0,7 mm 3 m/S 740 mmHg 65%
    17:00 +28°C° 0,7 mm 3 m/S 740 mmHg 68%
    18:00 +27°C° 0,9 mm 3 m/S 741 mmHg 73%
    19:00 +25°C° 0,9 mm 2 m/S 741 mmHg 78%
    20:00 +24°C° 0,9 mm 2 m/S 741 mmHg 82%
    21:00 +23°C° 1,1 mm 2 m/S 741 mmHg 84%
    22:00 +23°C° 1,1 mm 2 m/S 741 mmHg 87%
    23:00 +21°C° 1,1 mm 2 m/S 741 mmHg 89%

    20 Juli, Freitag

    Zeit Temperatur Niederschläge Wind Luftdruck Luftfeuchtigkeit
    00:00 +21°C° 0,2 mm 2 m/S 741 mmHg 90%
    01:00 +21°C° 0,2 mm 2 m/S 741 mmHg 91%
    02:00 +21°C° 0,2 mm 2 m/S 741 mmHg 92%
    03:00 +21°C° 0,4 mm 2 m/S 741 mmHg 92%
    04:00 +21°C° 0,4 mm 2 m/S 741 mmHg 93%
    05:00 +20°C° 0,4 mm 2 m/S 741 mmHg 93%
    06:00 +21°C° 0,7 mm 2 m/S 741 mmHg 90%
    07:00 +23°C° 0,7 mm 2 m/S 741 mmHg 87%
    08:00 +24°C° 0,7 mm 2 m/S 741 mmHg 83%
    09:00 +26°C° 0,8 mm 3 m/S 741 mmHg 77%
    10:00 +27°C° 0,8 mm 3 m/S 742 mmHg 71%
    11:00 +28°C° 0,8 mm 3 m/S 742 mmHg 65%
    12:00 +28°C° 0,3 mm 3 m/S 742 mmHg 64%
    13:00 +29°C° 0,3 mm 3 m/S 742 mmHg 63%
    14:00 +29°C° 0,3 mm 3 m/S 742 mmHg 61%
    15:00 +29°C° 0,4 mm 3 m/S 742 mmHg 62%
    16:00 +29°C° 0,4 mm 2 m/S 742 mmHg 63%
    17:00 +29°C° 0,4 mm 2 m/S 742 mmHg 64%
    18:00 +27°C° 0,1 mm 2 m/S 742 mmHg 69%
    19:00 +26°C° 0,1 mm 2 m/S 742 mmHg 74%
    20:00 +25°C° 0,1 mm 2 m/S 742 mmHg 78%
    21:00 +24°C° 0 mm 2 m/S 742 mmHg 81%
    22:00 +23°C° 0 mm 2 m/S 742 mmHg 84%
    23:00 +23°C° 0 mm 2 m/S 743 mmHg 87%

    21 Juli, Samstag

    Zeit Temperatur Niederschläge Wind Luftdruck Luftfeuchtigkeit
    00:00 +21°C° 0 mm 2 m/S 743 mmHg 89%
    01:00 +21°C° 0 mm 2 m/S 743 mmHg 91%
    02:00 +20°C° 0 mm 2 m/S 743 mmHg 92%
    03:00 +20°C° 0 mm 2 m/S 743 mmHg 93%
    04:00 +20°C° 0 mm 2 m/S 743 mmHg 93%
    05:00 +20°C° 0 mm 2 m/S 743 mmHg 94%
    06:00 +23°C° 0 mm 2 m/S 743 mmHg 88%
    07:00 +24°C° 0 mm 2 m/S 743 mmHg 82%
    08:00 +26°C° 0 mm 2 m/S 743 mmHg 76%
    09:00 +27°C° 0 mm 2 m/S 743 mmHg 71%
    10:00 +28°C° 0 mm 3 m/S 743 mmHg 67%
    11:00 +29°C° 0 mm 3 m/S 743 mmHg 62%
    12:00 +29°C° 0,2 mm 3 m/S 743 mmHg 60%
    13:00 +30°C° 0,2 mm 3 m/S 743 mmHg 59%
    14:00 +30°C° 0,2 mm 3 m/S 743 mmHg 57%
    15:00 +30°C° 0,3 mm 3 m/S 743 mmHg 59%
    16:00 +30°C° 0,3 mm 3 m/S 743 mmHg 62%
    17:00 +29°C° 0,3 mm 3 m/S 743 mmHg 64%
    18:00 +28°C° 0,1 mm 3 m/S 743 mmHg 70%
    19:00 +26°C° 0,1 mm 3 m/S 743 mmHg 77%
    20:00 +25°C° 0,1 mm 2 m/S 743 mmHg 83%
    21:00 +24°C° 0,1 mm 2 m/S 743 mmHg 85%
    22:00 +23°C° 0,1 mm 2 m/S 743 mmHg 87%
    23:00 +23°C° 0,1 mm 2 m/S 743 mmHg 90%
    Mehr zeigen